Probability
0 0 0 0 0 0 0 0 0 0 0 0 0 0 0 0 0 0 0 0 0 0 0 0 0 0 0 0 0 0 0 0 0 0 0 0 0 0 0 0 0 0 0 0
0 0 0 0 0 0 0 0 0 0 0 0 0 0 0 0 0 0 0 0 0 0 0 0 3 3 0 0 0 0 0 0 0 0 0 0 0 0 0 0 0 0 0 0
0 0 0 0 0 0 0 0 0 0 0 0 0 0 0 0 0 0 0 0 0 0 0 0 3 0 0 0 0 0 0 0 0 0 0 0 0 0 0 0 0 0 0 0
0 0 0 0 0 0 0 0 0 0 0 0 0 0 0 0 0 0 0 0 0 3 3 3 0 0 0 0 0 0 0 0 0 0 0 0 0 0 0 0 0 0 0 0
0 0 0 0 0 0 0 0 0 0 0 0 0 0 0 0 0 0 0 0 0 3 3 3 0 0 0 0 0 0 0 0 0 0 0 0 0 0 0 0 0 0 0 0
0 0 0 0 0 0 0 0 0 0 0 0 0 0 0 0 0 0 0 0 0 3 3 3 0 0 0 0 0 0 0 0 0 0 0 0 0 0 0 0 0 0 0 0
0 0 0 0 0 0 0 0 0 0 0 0 0 0 0 0 0 0 0 0 0 0 0 0 0 0 0 0 0 0 0 0 0 0 0 0 0 0 0 0 0 0 0 0
0 0 0 0 0 0 0 0 0 0 0 0 0 0 0 0 0 0 0 0 0 0 0 0 0 0 0 0 0 0 0 0 0 0 0 0 0 0 0 0 0 0 0 0
0 0 0 0 0 0 0 0 0 0 0 0 0 0 0 0 0 0 0 0 0 0 0 0 0 0 0 0 0 0 0 0 0 0 0 0 0 0 0 0 0 0 0 0
0 0 0 0 0 0 0 0 0 0 0 0 0 0 0 0 0 0 0 0 0 0 0 0 0 0 0 0 0 0 0 0 0 0 0 0 0 0 0 0 0 0 0 0
0 0 0 0 0 0 0 0 0 0 0 0 0 0 0 0 0 0 0 0 0 0 0 0 0 0 0 0 0 0 0 0 0 0 0 0 0 0 0 0 0 0 0 0
0 0 0 0 0 0 0 0 0 0 0 0 0 0 0 0 0 0 0 0 0 0 0 0 0 0 0 0 0 0 0 0 0 0 0 0 0 0 0 0 0 0 0 0
0 0 0 0 0 0 0 0 0 0 0 0 0 0 0 0 0 0 0 0 0 0 0 0 0 0 0 0 0 0 0 0 0 0 0 0 0 0 0 0 0 0 0 0
0 0 0 0 0 0 0 0 0 0 0 0 0 0 0 0 0 0 0 0 0 0 0 0 0 0 0 0 0 0 0 0 0 0 0 0 0 0 0 0 0 0 0 0
0 0 0 0 0 0 0 0 0 0 0 0 0 0 0 0 0 0 0 0 0 0 0 0 0 0 0 0 0 0 0 0 0 0 0 0 0 0 0 0 0 0 0 0
0 0 0 0 0 0 0 0 0 0 0 0 0 0 0 0 0 0 0 0 0 0 0 0 0 0 0 0 0 0 0 0 0 0 0 0 0 0 0 0 0 0 0 0
0 0 0 0 0 0 0 0 0 0 0 0 0 0 0 0 0 0 0 0 0 0 0 0 0 0 0 0 0 0 0 0 0 0 0 0 0 0 0 0 0 0 0 0
0 0 0 0 0 0 0 0 0 0 0 0 0 0 0 0 0 0 0 0 0 0 0 0 0 0 0 0 0 0 0 0 0 0 0 0 0 0 0 0 0 0 0 0
0 0 0 0 0 0 0 0 0 0 0 0 0 0 0 0 0 0 0 0 0 0 0 0 0 0 0 0 0 0 0 0 0 0 0 0 0 0 0 0 0 0 0 0
0 0 0 0 0 0 0 0 0 0 0 0 0 0 0 0 0 0 0 0 0 0 0 0 0 0 0 0 0 0 0 0 0 0 0 0 0 0 0 0 0 0 0 0
0 0 0 0 0 0 0 0 0 0 0 0 0 0 0 0 0 0 0 0 0 0 0 0 0 0 0 0 0 0 0 0 0 0 0 0 0 0 0 0 0 0 0 0
0 0 0 0 0 0 0 0 0 0 0 0 0 0 0 0 0 0 0 0 0 0 0 0 0 0 0 0 0 0 0 0 0 0 0 0 0 0 0 0 0 0 0 0
0 0 0 0 0 0 0 0 0 0 0 0 0 0 0 0 0 0 0 0 0 0 0 0 0 0 0 0 0 0 0 0 0 0 0 0 0 0 0 0 0 0 0 0
0 0 0 0 0 0 0 0 0 0 0 0 0 0 0 0 0 0 0 0 0 0 0 0 0 0 0 0 0 0 0 0 0 0 0 0 0 0 0 0 0 0 0 0
0 0 0 0 0 0 0 0 0 0 0 0 0 0 0 0 0 0 0 0 0 0 0 0 0 0 0 0 0 0 0 0 0 0 0 0 0 0 0 0 0 0 0 0
0 0 0 0 0 0 0 0 0 0 0 0 0 0 0 0 0 0 0 0 0 0 0 0 0 0 0 0 0 0 0 0 0 0 0 0 0 0 0 0 0 0 0 0
Height
5851 5852 5851 5851 5851 5851 5850 5850 5849 5849 5848 5848 5848 5848 5847 5847 5846 5846 5846 5846 5846 5846 5846 5846 5845 5845 5844 5844 5843 5842 5841 5840 5839 5838 5837 5837 5836 5835 5834 5834 5833 5832 5831 5831
5849 5848 5848 5847 5847 5847 5847 5846 5846 5846 5845 5844 5844 5844 5844 5844 5843 5843 5843 5843 5843 5843 5843 5843 5842 5841 5841 5840 5839 5838 5838 5836 5835 5835 5834 5834 5833 5832 5832 5831 5830 5829 5829 5828
5845 5846 5844 5844 5844 5843 5843 5843 5843 5842 5841 5840 5841 5841 5841 5841 5840 5840 5840 5839 5839 5839 5839 5839 5838 5838 5837 5836 5835 5834 5833 5832 5832 5831 5830 5830 5830 5829 5828 5828 5827 5826 5826 5825
5841 5841 5841 5840 5840 5840 5840 5840 5839 5838 5838 5837 5837 5837 5838 5837 5837 5836 5836 5836 5836 5836 5835 5835 5835 5834 5833 5832 5831 5830 5829 5828 5827 5827 5827 5826 5826 5825 5825 5824 5824 5823 5822 5822
5838 5838 5837 5837 5837 5836 5836 5836 5835 5834 5834 5834 5833 5833 5834 5833 5833 5833 5832 5832 5832 5832 5832 5831 5831 5830 5829 5828 5827 5826 5825 5824 5823 5823 5822 5822 5822 5822 5821 5820 5820 5820 5819 5818
5834 5834 5833 5833 5833 5833 5832 5832 5832 5831 5830 5830 5830 5829 5830 5829 5829 5828 5828 5828 5827 5827 5827 5827 5826 5826 5825 5824 5823 5822 5821 5820 5819 5819 5818 5818 5818 5817 5817 5816 5816 5816 5815 5815
5830 5830 5829 5829 5829 5829 5829 5829 5828 5827 5827 5827 5826 5825 5826 5825 5824 5824 5824 5823 5823 5823 5823 5822 5822 5821 5820 5819 5819 5818 5817 5816 5815 5814 5814 5813 5813 5813 5813 5812 5812 5812 5811 5811
5825 5826 5826 5825 5825 5825 5824 5824 5825 5824 5823 5823 5822 5821 5822 5821 5820 5819 5819 5819 5818 5818 5818 5817 5817 5816 5815 5815 5814 5813 5812 5811 5811 5810 5809 5809 5808 5808 5808 5808 5807 5807 5807 5806
5820 5821 5821 5820 5820 5820 5820 5819 5820 5819 5818 5818 5818 5818 5817 5816 5816 5815 5815 5814 5814 5814 5813 5813 5812 5811 5811 5810 5809 5808 5808 5807 5806 5805 5804 5804 5804 5803 5803 5803 5802 5802 5802 5801
5815 5815 5816 5815 5815 5815 5816 5815 5815 5814 5813 5813 5813 5813 5813 5812 5811 5811 5810 5809 5809 5809 5808 5807 5807 5806 5805 5805 5804 5803 5802 5801 5800 5800 5799 5798 5798 5798 5797 5797 5797 5797 5797 5796
5809 5810 5810 5810 5810 5810 5811 5811 5810 5809 5809 5808 5808 5811 5808 5807 5806 5805 5805 5804 5804 5804 5803 5802 5802 5801 5801 5800 5799 5798 5797 5796 5795 5794 5793 5792 5792 5792 5791 5791 5791 5791 5791 5790
5804 5804 5804 5805 5805 5805 5805 5805 5805 5805 5804 5803 5802 5806 5803 5802 5801 5800 5800 5799 5799 5798 5798 5797 5796 5796 5795 5795 5794 5792 5791 5790 5789 5788 5787 5786 5786 5785 5785 5785 5785 5784 5784 5784
5798 5798 5798 5798 5801 5800 5799 5799 5799 5798 5798 5797 5797 5800 5798 5797 5796 5795 5795 5794 5793 5792 5792 5791 5791 5790 5790 5789 5788 5787 5785 5784 5783 5782 5781 5780 5780 5779 5779 5779 5778 5778 5778 5777
5791 5791 5792 5793 5792 5792 5792 5792 5792 5792 5792 5791 5792 5793 5792 5792 5791 5790 5789 5788 5787 5787 5786 5786 5785 5785 5784 5783 5782 5781 5780 5778 5777 5776 5775 5774 5773 5772 5772 5772 5771 5770 5770 5770
5785 5785 5784 5785 5785 5785 5785 5785 5785 5785 5785 5786 5786 5786 5786 5786 5785 5784 5783 5783 5782 5781 5780 5780 5779 5779 5778 5777 5776 5775 5774 5772 5771 5770 5769 5768 5767 5766 5765 5764 5764 5763 5762 5762
5777 5777 5777 5778 5778 5777 5778 5779 5779 5779 5779 5779 5779 5780 5780 5779 5778 5778 5777 5777 5776 5775 5775 5774 5773 5772 5771 5770 5769 5768 5767 5766 5764 5763 5762 5761 5760 5759 5758 5757 5756 5755 5755 5754
5770 5770 5771 5771 5771 5771 5772 5773 5772 5772 5772 5772 5773 5775 5774 5773 5773 5772 5771 5771 5770 5769 5769 5768 5767 5766 5765 5764 5763 5762 5761 5759 5758 5756 5755 5754 5753 5752 5751 5750 5749 5748 5747 5746
5765 5765 5764 5765 5766 5765 5769 5767 5766 5766 5766 5766 5766 5767 5767 5767 5767 5766 5765 5765 5764 5763 5762 5761 5760 5759 5758 5757 5756 5755 5753 5752 5751 5749 5748 5747 5746 5745 5743 5742 5741 5740 5739 5738
5760 5760 5759 5759 5759 5760 5761 5761 5760 5759 5760 5760 5760 5760 5760 5760 5760 5760 5759 5758 5758 5757 5755 5754 5754 5753 5751 5750 5748 5747 5746 5745 5743 5742 5740 5739 5738 5737 5735 5734 5733 5732 5731 5730
5755 5754 5754 5753 5753 5754 5756 5755 5753 5754 5754 5754 5753 5753 5753 5753 5754 5755 5753 5752 5751 5750 5749 5747 5746 5745 5744 5742 5741 5739 5738 5737 5735 5734 5733 5731 5730 5728 5727 5726 5725 5723 5722 5721
5749 5749 5748 5748 5747 5748 5749 5748 5748 5749 5749 5748 5747 5747 5747 5747 5747 5747 5746 5744 5743 5742 5741 5740 5739 5737 5736 5735 5733 5732 5730 5729 5727 5726 5725 5723 5722 5721 5719 5718 5717 5715 5714 5713
5743 5743 5743 5742 5742 5744 5742 5742 5742 5742 5742 5741 5741 5740 5740 5740 5740 5739 5738 5737 5736 5735 5734 5733 5731 5730 5728 5727 5725 5724 5722 5721 5719 5718 5717 5715 5714 5713 5711 5710 5709 5707 5706 5705
5738 5738 5737 5737 5738 5737 5735 5735 5735 5734 5734 5734 5734 5734 5733 5733 5733 5732 5731 5730 5728 5727 5726 5724 5723 5722 5721 5719 5717 5716 5714 5713 5711 5710 5708 5707 5706 5704 5703 5702 5701 5699 5698 5696
5733 5731 5731 5731 5731 5730 5729 5728 5728 5727 5727 5727 5726 5726 5726 5725 5725 5724 5723 5722 5721 5719 5718 5716 5715 5714 5712 5711 5709 5707 5706 5704 5703 5702 5701 5699 5697 5696 5694 5693 5692 5690 5689 5688
5727 5725 5724 5724 5724 5723 5723 5722 5721 5721 5720 5719 5719 5719 5718 5718 5717 5716 5715 5714 5712 5711 5710 5708 5707 5705 5704 5703 5701 5699 5698 5696 5695 5693 5692 5691 5689 5687 5686 5684 5683 5682 5680 5679
5720 5719 5718 5717 5717 5716 5716 5715 5714 5714 5713 5712 5711 5711 5710 5709 5709 5708 5707 5705 5704 5703 5701 5700 5698 5697 5696 5694 5693 5691 5689 5688 5687 5685 5683 5682 5680 5679 5677 5675 5673 5672 5671 5669
Wind_Speed
12 13 13 13 13 13 14 14 14 14 14 14 14 14 13 12 12 12 12 12 12 12 12 11 11 11 12 12 12 11 11 11 11 10 10 10 9 9 9 9 9 8 8 9
13 14 14 15 14 14 14 14 14 15 15 15 14 14 13 12 13 12 12 12 13 13 12 12 12 12 12 12 12 12 12 12 12 11 11 10 10 10 10 10 9 9 9 9
14 15 16 15 15 14 14 14 14 14 15 15 15 14 13 13 13 13 13 12 13 13 13 13 13 13 12 13 13 13 13 12 12 12 11 11 11 11 11 10 10 10 10 10
15 16 16 15 15 15 15 14 15 15 15 15 15 15 14 14 14 14 14 14 14 14 14 14 14 13 13 13 13 14 14 13 12 12 12 12 12 11 11 11 11 10 11 11
15 15 15 15 14 15 15 15 15 15 15 15 14 15 15 15 15 15 15 15 15 15 15 15 15 14 14 14 14 15 14 13 12 12 12 12 12 13 13 13 12 12 12 12
15 15 15 15 15 16 16 15 16 16 16 15 15 16 15 15 16 16 16 16 16 16 16 16 16 16 15 15 15 14 14 13 13 13 13 13 13 13 14 14 13 13 12 12
16 15 15 16 16 17 17 17 17 17 16 15 15 16 16 16 17 17 17 17 17 17 16 16 16 16 16 16 15 15 15 15 14 14 14 14 14 14 14 13 14 14 14 14
17 16 16 17 17 18 18 18 18 18 17 16 16 16 16 17 17 17 17 17 17 16 16 16 16 16 16 15 15 14 14 15 15 15 16 16 16 16 16 15 15 15 16 16
18 18 17 17 17 18 18 18 18 19 19 19 18 17 17 17 17 17 17 17 16 16 16 17 17 16 16 15 15 15 15 15 15 16 16 17 17 17 18 17 17 16 17 17
20 19 18 18 18 18 18 18 19 20 20 20 19 18 17 17 18 18 17 17 17 17 17 17 18 17 17 16 16 16 16 17 17 17 17 18 18 19 19 19 19 18 18 18
21 21 20 20 19 18 19 19 20 21 21 21 20 18 17 17 18 18 18 18 18 18 18 18 18 17 17 17 18 17 17 18 18 18 18 19 19 20 20 20 21 21 20 20
21 22 22 21 20 20 21 21 21 22 22 22 21 19 18 18 18 19 19 19 19 19 19 19 19 19 18 19 18 18 18 19 19 20 19 20 21 21 21 22 22 22 22 22
22 22 23 22 22 22 23 22 22 22 23 22 21 20 19 18 18 19 19 19 19 19 19 19 19 19 19 19 19 19 19 19 20 20 20 21 22 22 22 23 23 23 23 23
23 23 23 24 23 24 24 23 23 23 23 23 22 20 19 19 18 19 19 19 20 20 19 19 19 19 20 20 20 20 20 20 20 20 21 21 22 22 22 24 24 24 24 25
23 24 24 23 24 24 24 24 23 24 24 24 22 21 20 19 19 19 19 19 20 20 20 20 20 20 21 21 20 20 21 21 21 21 22 22 23 23 23 24 25 25 25 26
23 23 24 23 23 24 24 23 23 24 24 24 23 21 20 21 20 20 20 19 19 20 20 20 21 21 21 22 21 21 22 22 22 22 23 24 24 24 24 25 25 25 26 26
23 23 23 23 21 22 22 21 22 23 24 24 23 22 21 21 21 21 21 21 20 21 21 21 22 22 22 23 23 23 23 24 24 24 24 25 25 24 25 26 26 26 26 26
22 22 22 21 21 22 20 20 20 21 22 23 23 22 22 22 22 22 22 21 21 21 22 22 22 22 22 23 24 24 25 25 26 26 26 26 26 26 26 27 27 27 26 26
21 22 23 22 22 21 20 20 21 21 21 22 22 22 22 22 22 22 23 23 22 22 23 24 24 23 24 24 25 25 26 26 27 27 27 27 27 27 27 27 27 27 27 27
21 21 22 22 22 22 20 21 21 21 20 21 22 23 23 23 23 22 23 23 23 23 24 24 25 25 25 26 26 26 27 27 27 27 27 27 27 27 27 27 27 27 27 27
21 21 22 22 22 21 21 21 22 22 20 20 22 22 22 22 23 22 23 23 24 24 24 25 25 25 25 25 26 26 26 27 28 28 27 26 27 27 27 28 27 27 27 27
20 22 22 22 22 22 21 21 22 23 22 21 22 22 22 23 23 23 23 24 24 24 24 25 25 25 26 26 26 26 26 26 27 27 28 28 28 28 28 28 28 27 28 28
21 22 22 22 22 23 23 23 23 23 23 23 23 23 24 24 24 24 24 25 25 25 25 25 26 26 26 26 27 27 27 27 27 27 28 28 29 29 29 29 29 28 28 28
20 21 22 22 22 23 24 24 24 24 24 24 24 24 25 25 26 25 25 26 26 26 26 26 26 26 26 26 27 27 28 28 28 28 28 28 28 28 29 29 29 29 29 29
21 22 23 23 22 23 24 24 24 24 25 25 23 24 25 26 26 27 27 26 26 26 25 26 26 26 26 26 26 27 27 28 28 28 28 28 29 29 29 30 29 29 29 29
22 23 24 24 23 23 23 23 24 25 26 26 26 25 25 26 26 27 27 26 26 25 25 25 26 26 26 26 26 26 27 27 28 28 28 28 29 28 29 29 29 29 29 30
Wind_Direction
273 277 282 284 285 286 286 285 283 281 278 276 277 278 277 275 274 275 273 272 270 269 268 270 272 276 279 280 282 286 285 286 283 280 283 286 287 289 292 292 293 289 286 289
272 277 279 282 283 282 282 284 283 281 279 276 275 276 276 273 273 273 272 269 268 267 266 269 273 277 280 280 282 285 284 283 279 277 278 280 283 283 283 285 288 288 288 289
273 275 278 281 281 281 282 283 282 282 280 276 275 273 274 271 269 272 272 271 269 268 270 272 273 276 279 280 282 285 285 282 278 276 274 274 278 280 280 280 283 282 285 289
273 276 278 278 278 278 281 283 280 281 282 276 275 274 274 271 270 271 272 271 272 271 272 272 274 275 277 278 280 283 283 281 277 274 271 272 274 274 275 277 279 279 281 284
276 277 277 277 278 278 280 280 279 282 284 277 275 277 276 273 273 273 272 273 273 274 273 272 273 274 275 275 278 280 280 279 276 274 271 270 271 271 272 273 275 277 279 283
275 277 277 276 276 278 277 276 277 280 284 280 279 279 278 277 276 275 273 275 276 275 273 272 270 271 272 275 276 277 278 278 277 274 271 270 267 267 270 272 272 274 279 283
276 276 276 277 277 276 275 275 277 281 284 285 284 282 283 281 279 278 276 276 277 274 272 274 273 273 273 275 276 276 277 278 277 274 270 270 270 269 271 275 274 275 278 281
278 278 277 277 277 276 275 275 277 281 284 286 287 283 285 284 283 283 279 275 274 272 269 269 270 273 274 274 275 275 277 279 278 276 271 269 270 271 270 275 274 276 278 278
280 280 278 275 273 273 273 272 274 277 282 285 286 286 284 283 283 282 278 275 272 270 269 269 270 274 273 274 276 277 278 278 278 277 274 271 271 271 270 273 274 275 277 278
280 279 277 273 270 269 271 273 273 275 278 284 284 283 284 283 282 281 277 273 273 272 273 275 273 272 271 272 275 277 281 281 279 279 277 274 272 272 272 272 273 276 278 278
279 278 276 272 270 270 270 271 271 274 275 280 283 281 282 282 280 280 277 273 272 271 273 277 278 273 272 272 274 277 279 280 277 277 276 276 274 273 273 273 273 274 276 277
277 275 273 271 268 269 270 272 272 273 274 275 279 279 280 282 279 277 275 274 272 271 272 273 274 274 276 277 277 278 278 278 277 276 277 279 278 276 275 275 275 274 276 277
276 275 273 270 268 269 271 271 271 272 273 274 276 279 279 280 280 277 274 271 271 273 272 271 271 274 277 278 278 279 280 279 278 277 277 279 280 278 278 277 278 277 277 277
274 272 272 271 271 270 270 270 269 270 273 275 276 277 278 279 279 277 275 272 270 272 271 270 272 274 276 277 278 280 281 282 279 280 281 281 281 280 279 278 278 280 278 276
273 271 270 269 269 269 270 269 269 270 272 274 275 275 275 277 276 275 274 271 271 273 273 272 274 275 276 278 279 280 281 282 281 281 282 283 282 281 281 281 281 280 278 277
275 274 271 271 269 269 268 269 269 271 271 272 274 274 274 273 274 274 273 271 271 273 274 274 274 276 277 278 279 280 281 282 283 284 284 285 284 282 282 284 284 283 281 279
277 277 274 272 271 270 268 270 271 270 269 270 271 273 273 272 272 272 272 272 271 272 273 273 275 277 278 279 280 280 280 282 282 283 284 286 284 282 283 283 284 283 283 282
275 273 274 274 271 269 271 271 273 272 270 270 270 271 273 273 272 272 272 271 272 273 274 276 277 277 278 279 280 280 280 281 282 282 284 285 283 283 283 284 284 283 282 281
273 276 276 275 272 273 272 273 275 276 273 271 270 272 274 274 276 275 275 275 276 277 278 279 279 280 280 282 283 284 283 282 282 283 285 284 284 283 283 284 284 282 280 279
274 275 274 275 275 277 276 274 276 277 276 274 273 273 273 274 275 276 279 280 280 279 280 281 281 282 283 285 286 286 287 284 282 283 285 285 284 283 282 284 283 282 280 279
274 274 275 275 277 278 279 276 276 275 276 276 276 276 275 276 278 279 281 282 281 281 283 283 283 283 284 286 287 288 289 288 286 284 283 283 283 283 284 284 283 282 281 281
277 276 277 277 278 278 278 279 278 275 274 276 276 276 276 276 277 280 282 284 284 284 284 284 284 284 284 285 286 287 288 288 287 286 284 284 283 282 285 284 282 281 282 282
278 277 278 278 279 279 277 277 278 277 273 274 276 275 276 276 278 280 282 284 285 284 284 284 284 284 284 283 284 285 286 286 286 286 285 284 284 283 282 283 282 281 282 282
279 278 277 278 278 277 276 277 278 278 276 275 275 276 277 277 278 280 282 284 285 284 284 284 284 284 284 283 283 284 284 284 284 284 284 285 285 283 283 282 281 281 282 282
281 278 277 277 278 276 276 275 276 277 277 277 277 277 277 278 279 280 282 283 285 285 284 283 283 283 282 282 283 283 282 283 284 285 284 283 285 285 284 282 282 281 281 282
281 278 277 279 279 278 276 276 276 276 275 275 275 276 277 278 279 280 282 283 284 286 285 283 283 282 282 283 283 283 283 284 284 284 286 285 285 286 285 284 284 283 283 283